NOAA NWS Hourly Roundups by Site

Regional Weather Roundup for Omaha, NE

To Select Another Site Choose from List

Select Site:  

000
ASUS43 KOAX 220210
RWRNE

WEATHER ROUNDUP FOR NEBRASKA
NATIONAL WEATHER SERVICE OMAHA NE
900 PM CDT TUE SEP 21 2021

NOTES: SATELLITE DATA IS BEING USED TO AUGMENT CLOUD COVER ABOVE
       12000 FEET.
       "FAIR" INDICATES FEW OR NO CLOUDS BELOW 12,000 FEET WITH NO
       SIGNIFICANT WEATHER AND/OR OBSTRUCTIONS TO VISIBILITY.


NEZ001>004-019>022-054>056-220300-
NEBRASKA PANHANDLE

CITY           SKY/WX    TMP DP  RH WIND       PRES   REMARKS
SCOTTSBLUFF    CLEAR     52  37  56 E5        30.39S
ALLIANCE       CLEAR     49  34  56 E3        30.39S
CHADRON        CLEAR     52  37  56 SE9       30.35S
GORDON         CLEAR     49  37  63 CALM      30.38S
KIMBALL        CLEAR     49  24  37 SE7       30.44R
SIDNEY         CLEAR     44  26  49 E6        30.42R
$$

NEZ057>060-069>072-079>082-220300-
SOUTHWEST NEBRASKA

CITY           SKY/WX    TMP DP  RH WIND       PRES   REMARKS
NORTH PLATTE   CLEAR     54  38  54 NE3       30.40R
IMPERIAL       CLEAR     45  37  73 E3        30.42R
LEXINGTON      CLEAR     50  43  78 N3        30.40R
MCCOOK         CLEAR     54  34  46 NW6       30.40R
OGALLALA       CLEAR     52  37  57 CALM      30.42R
$$

NEZ005>010-023>029-035>040-094-220300-
NORTH CENTRAL NEBRASKA

CITY           SKY/WX    TMP DP  RH WIND       PRES   REMARKS
VALENTINE      CLEAR     53  42  66 SE3       30.39R
AINSWORTH      CLEAR     52  39  61 CALM      30.40R
BROKEN BOW     CLEAR     48  43  82 N7        30.39R
O`NEILL        CLEAR     55  40  57 N3        30.39R
ORD            CLEAR     51  45  79 CALM      30.38R
THEDFORD       CLEAR     51  36  56 CALM      30.42R
$$

NEZ041-046>049-061>064-073>077-083>087-220300-
SOUTH CENTRAL NEBRASKA

CITY           SKY/WX    TMP DP  RH WIND       PRES   REMARKS
GRAND ISLAND   CLEAR     55  46  71 N6        30.38R
AURORA         CLEAR     55  46  72 N7        30.38R
HASTINGS       CLEAR     58  46  64 CALM      30.38R
HEBRON         CLEAR     55  43  64 CALM      30.36R
HOLDREGE       CLEAR     54  47  76 CALM      30.39R
KEARNEY        CLEAR     56  44  64 N3        30.39R
YORK           CLEAR     54  48  82 CALM      30.37R
$$

NEZ011>018-030>034-042>045-220300-
NORTHEAST NEBRASKA

CITY           SKY/WX    TMP DP  RH WIND       PRES   REMARKS
NORFOLK        CLEAR     57  40  52 NW3       30.36R
ALBION         CLEAR     50  45  82 NW3       30.38R
BLAIR          CLEAR     58  42  56 N6        30.34R
COLUMBUS       CLEAR     54  46  74 N5        30.37R
FREMONT        CLEAR     56  45  64 CALM      30.35R
TEKAMAH        CLEAR     50  43  77 NW8       30.34R
WAYNE          CLEAR     51  42  70 CALM      30.36R
$$

NEZ050>053-065>068-078-088>093-220300-
SOUTHEAST NEBRASKA

CITY           SKY/WX    TMP DP  RH WIND       PRES   REMARKS
LINCOLN        CLEAR     61  44  53 NW3       30.36R
OMAHA EPPLEY   CLEAR     58  44  60 N6        30.33R
BEATRICE       CLEAR     55  45  68 N7        30.35R
FALLS CITY     CLEAR     55  44  66 NW5       30.31R
NEBRASKA CITY  CLEAR     57  37  47 N7        30.33R
PLATTSMOUTH    CLEAR     59  40  49 NW5       30.33R
$$

NEZ044-045-051>053-067-220300-
OMAHA AREA

CITY           SKY/WX    TMP DP  RH WIND       PRES   REMARKS
OMAHA EPPLEY   CLEAR     58  44  60 N6        30.33R
BLAIR          CLEAR     58  42  56 N6        30.34R
FREMONT        CLEAR     56  45  64 CALM      30.35R
MILLARD        CLEAR     60  43  54 CALM      30.33R
OFFUTT AFB     CLEAR     68  37  32 N6        30.31S
PLATTSMOUTH    CLEAR     59  40  49 NW5       30.33R
WAHOO          CLEAR     54  45  70 NW6       30.35R
$$


 

View Past Reports for Omaha, NE.

Products Courtesy of NOAA-NWS
NWS Information Parsing Script by Ken True at Saratoga Weather - Script by SE Lincoln Weather.

This data is offered only as a general guide to local weather conditions. It should not be relied upon in lieu of officially disseminated weather information for determining possible risk to persons or property. This site, including all information contained therein, is made available as is without warranties of any kind, either express or implied. The Vicarage Weather Feed© includes links to other sites for user convenience only. The content of any linked third-party site is not controlled by The Vicarage Weather Feed©. Access to any third-party website through The Vicarage Weather Feed©, regardless of whether or not the third-party site is a linked site, is entirely at the users own risk. Externally sourced content or material is excluded from The Vicarage Weather Feed© copyright and is the copyright and property of the respective provider. Skywarn® and the Skywarn® logo are registered trademarks of the National Oceanic and Atmospheric Administration, used with permission.